Terminal Aerodrome Forecast
Issued by NWS Boston, MA

Home | Current Version | Previous Version | Text Only | Print | Product List | Glossary On
Versions: 1 2 3 4 5 6 7 8 9 10 11 12 13 14 15 16 17 18 19 20 21 22 23 24 25 26 27 28 29 30 31 32 33 34 35 36 37 38 39 40 41 42 43 44 45 46 47
348
FTUS41 KBOX 171120
TAFBDL
TAF
KBDL 171120Z 1712/1818 VRB03KT P6SM BKN200
     FM181000 15004KT P6SM VCSH OVC040
     FM181400 16007KT 4SM -SHRA OVC050
     FM181600 17007KT 1SM -SHRA BR VCTS OVC015CB=

USA.gov is the U.S. government's official web portal to all federal, state and local government web resources and services.